Location: Stockholm
(59.3330°N, 18.0500°E)
Time: 12:30:29
(UTC+01:00)

Envisat - Pass Details

Date: 29 November 2022
Orbit: 763 x 765 km, 98.2° (Epoch: 29 January)

Event Time Altitude Azimuth Distance (km) Brightness Sun altitude
Rises 06:04:32 0° 15° (NNE) 3,250 6.2 -14.8°
Reaches altitude 10° 06:07:09 10° 4° (N) 2,320 5.3 -14.5°
Maximum altitude 06:11:20 27° 309° (NW) 1,468 3.9 -14.0°
Enters shadow 06:13:56 18° 266° (W) 1,842 4.4 -13.7°
